GW1943 Weather Reports


time (UTC)temp
F
wind
direction
speed
knots
gust
knots
rain 1hr
in
rain 24hr
in
rain mn
in
humidity
%
barometer
mb
20260903232114 66 210 0.0 0.0 0.00 0.06 0.06 64 1010.7
20260903231609 66 214 0.0 0.9 0.00 0.06 0.06 65 1011.0
20260903231109 66 206 0.0 0.9 0.00 0.06 0.06 64 1010.8
20260903230605 65 217 0.0 0.0 0.00 0.06 0.06 66 1010.8
20260903230103 65 232 0.0 0.0 0.00 0.06 0.06 65 1010.9
20260903225601 65 221 0.0 0.9 0.00 0.06 0.06 68 1010.9
20260903225057 65 195 0.0 0.9 0.00 0.06 0.06 68 1010.9
20260903224553 65 195 0.0 0.0 0.00 0.06 0.06 70 1010.8
20260903224048 64 196 0.0 0.0 0.00 0.06 0.06 70 1011.0
20260903223543 65 197 0.0 0.0 0.00 0.06 0.06 67 1011.1
20260903223042 65 197 0.0 0.0 0.00 0.06 0.06 68 1011.1
20260903222537 65 196 0.0 0.0 0.00 0.06 0.06 70 1011.1
20260903222036 65 215 0.0 0.0 0.00 0.06 0.06 71 1011.2
20260903221531 65 210 0.0 0.0 0.00 0.06 0.06 68 1011.1
20260903221029 64 210 0.0 0.0 0.00 0.06 0.06 72 1011.0
20260903220528 64 201 0.0 0.0 0.00 0.06 0.06 72 1011.2
20260903220028 63 204 0.0 0.0 0.00 0.06 0.06 72 1011.2
20260903215522 64 214 0.0 0.0 0.00 0.06 0.06 72 1011.1
20260903215022 64 212 0.9 1.7 0.00 0.06 0.06 70 1011.2
20260903214522 63 224 0.0 0.0 0.00 0.06 0.06 70 1011.2
20260903214021 63 246 2.6 2.6 0.00 0.06 0.06 69 1011.2
20260903213517 63 216 0.0 0.0 0.00 0.06 0.06 74 1011.0
20260903213013 63 217 0.0 1.7 0.00 0.06 0.06 71 1011.2
20260903212509 64 248 1.7 2.6 0.00 0.06 0.06 69 1011.0
20260903212003 65 220 0.0 0.0 0.00 0.06 0.06 67 1011.0
20260903211458 65 234 1.7 1.7 0.00 0.06 0.06 65 1010.9
20260903210955 66 228 0.0 0.9 0.00 0.06 0.06 68 1011.0
20260903210454 67 211 0.0 4.3 0.00 0.06 0.06 63 1010.9
20260903205950 69 237 2.6 2.6 0.00 0.06 0.06 59 1010.7
20260903205444 69 212 0.9 0.9 0.00 0.06 0.06 59 1010.7
20260903204939 68 214 0.0 2.6 0.00 0.06 0.06 61 1011.0
20260903204435 68 214 0.0 2.6 0.00 0.06 0.06 61 1011.1
20260903203931 68 211 0.0 1.7 0.00 0.06 0.06 64 1010.9
20260903203426 67 214 0.0 2.6 0.00 0.06 0.06 63 1010.8
20260903202925 65 257 1.7 1.7 0.00 0.06 0.06 67 1011.0
20260903202422 65 254 2.6 2.6 0.00 0.06 0.06 67 1010.9
20260903201921 65 243 0.9 1.7 0.00 0.06 0.06 68 1010.9
20260903201417 64 225 0.0 1.7 0.00 0.06 0.06 69 1010.8
20260903200915 64 241 1.7 2.6 0.00 0.06 0.06 71 1011.0
20260903200410 64 246 3.5 5.2 0.00 0.06 0.06 69 1010.9
20260903195906 64 223 0.9 2.6 0.00 0.06 0.06 69 1010.9
20260903195402 63 237 0.9 1.7 0.00 0.06 0.06 70 1010.8
20260903194856 64 253 2.6 4.3 0.00 0.06 0.06 68 1010.9
20260903194352 64 216 0.0 1.7 0.00 0.06 0.06 71 1010.9
20260903193847 64 236 0.9 0.9 0.00 0.06 0.06 69 1010.8
20260903193344 65 219 0.9 1.7 0.00 0.06 0.06 67 1010.7
20260903192838 65 217 0.9 2.6 0.00 0.06 0.06 66 1010.6
20260903192334 65 238 2.6 2.6 0.00 0.06 0.06 69 1010.6
20260903191831 64 217 0.9 2.6 0.00 0.06 0.06 69 1010.5
20260903191326 64 266 1.7 2.6 0.00 0.06 0.06 70 1010.9
20260903190825 63 211 0.9 2.6 0.00 0.06 0.06 68 1010.5
20260903190320 63 269 2.6 4.3 0.00 0.06 0.06 70 1010.8
20260903185820 62 215 1.7 2.6 0.00 0.06 0.06 71 1010.7
20260903185315 62 220 0.0 0.9 0.00 0.06 0.06 73 1010.7
20260903184811 62 210 2.6 2.6 0.00 0.06 0.06 70 1010.6
20260903184307 63 218 1.7 1.7 0.00 0.06 0.06 70 1010.7
20260903183756 63 255 2.6 4.3 0.00 0.06 0.06 72 1010.6
20260903183250 62 217 0.0 1.7 0.00 0.06 0.06 74 1010.8
20260903182749 62 214 0.0 1.7 0.00 0.06 0.06 74 1010.6
20260903182244 61 212 0.0 1.7 0.00 0.06 0.06 75 1010.7
20260903181743 61 214 0.9 1.7 0.00 0.06 0.06 75 1010.6
20260903181238 61 219 0.9 2.6 0.00 0.06 0.06 75 1010.7
20260903180734 60 213 0.9 2.6 0.00 0.06 0.06 75 1010.6
20260903180232 60 222 0.0 2.6 0.00 0.06 0.06 76 1010.5
20260903175727 60 222 0.9 1.7 0.00 0.06 0.06 76 1010.5
20260903175226 61 211 0.0 1.7 0.00 0.06 0.06 77 1010.6
20260903174725 61 226 1.7 2.6 0.00 0.06 0.06 75 1010.4
20260903174221 62 214 0.9 1.7 0.00 0.06 0.06 75 1010.6
20260903173716 62 206 2.6 4.3 0.00 0.06 0.06 73 1010.3
20260903173212 61 191 0.0 0.9 0.00 0.06 0.06 78 1010.3
20260903172706 62 214 0.9 1.7 0.00 0.06 0.06 76 1010.3
20260903172201 61 226 1.7 1.7 0.00 0.06 0.06 78 1010.3
20260903171656 60 215 0.0 2.6 0.00 0.06 0.06 81 1010.3
20260903171152 60 214 0.0 0.9 0.00 0.06 0.06 83 1010.5
20260903170651 60 209 0.0 0.0 0.00 0.06 0.06 83 1010.1
20260903170146 59 201 0.0 0.0 0.00 0.06 0.06 85 1010.2
20260903165644 59 203 0.0 0.0 0.00 0.06 0.06 84 1010.3
20260903165139 59 201 0.0 0.0 0.00 0.06 0.06 85 1010.3
20260903164634 59 200 0.0 0.0 0.00 0.06 0.06 86 1010.3
20260903164130 59 203 0.0 0.0 0.00 0.06 0.06 86 1010.0
20260903163624 59 202 0.0 0.9 0.00 0.06 0.06 86 1010.2
20260903163121 59 212 0.0 0.0 0.00 0.06 0.06 88 1010.2
20260903162617 59 202 0.0 0.0 0.00 0.06 0.06 89 1010.3
20260903162113 58 212 0.0 0.9 0.00 0.06 0.06 89 1010.4
20260903161613 58 216 0.0 0.0 0.00 0.06 0.06 89 1010.3
20260903161108 58 249 0.9 1.7 0.00 0.06 0.06 89 1010.5
20260903160603 57 212 0.0 0.0 0.00 0.06 0.06 88 1010.2
20260903160057 57 206 0.0 0.0 0.00 0.06 0.06 89 1010.2
20260903155556 56 157 0.0 0.9 0.00 0.06 0.06 91 1010.3
20260903155051 56 202 0.0 0.0 0.00 0.06 0.06 92 1010.4
20260903154548 56 203 0.0 0.0 0.00 0.06 0.06 92 1010.2
20260903154043 56 202 0.0 0.0 0.00 0.06 0.06 92 1010.1
20260903153538 55 198 0.0 0.0 0.00 0.06 0.06 92 1010.1
20260903153035 55 143 0.0 0.0 0.00 0.06 0.06 92 1010.0
20260903152530 55 198 0.0 0.0 0.00 0.06 0.06 92 1010.0
20260903152027 55 199 0.0 0.0 0.00 0.06 0.06 92 1010.3
20260903151525 55 199 0.0 0.0 0.00 0.06 0.06 92 1010.1
20260903151021 55 200 0.0 0.0 0.00 0.06 0.06 92 1010.0
20260903150515 55 199 0.0 0.0 0.00 0.06 0.06 93 1010.3
20260903150010 54 201 0.0 0.0 0.00 0.06 0.06 93 1010.1
20260903145504 54 197 0.0 0.0 0.00 0.06 0.06 94 1010.0
20260903145000 54 203 0.0 0.0 0.00 0.06 0.06 94 1010.1
20260903144459 54 196 0.0 0.0 0.00 0.06 0.06 95 1009.9
20260903143955 54 129 0.0 0.0 0.00 0.06 0.06 95 1010.1
20260903143451 54 190 0.0 0.0 0.00 0.06 0.06 95 1010.0
20260903142947 54 200 0.0 0.0 0.00 0.06 0.06 95 1010.0
20260903142442 54 201 0.0 0.9 0.00 0.06 0.06 96 1009.9
20260903141938 54 202 0.0 0.0 0.00 0.06 0.06 96 1010.0
20260903141433 54 201 0.0 0.0 0.00 0.06 0.06 96 1009.8
20260903140929 54 202 0.0 0.0 0.00 0.06 0.06 96 1009.7
20260903140425 53 201 0.0 0.9 0.00 0.06 0.06 97 1009.8
20260903135925 53 157 0.0 0.0 0.05 0.06 0.06 97 1009.8
20260903135421 53 206 0.0 0.9 0.00 0.05 0.05 97 1010.0
20260903134915 53 201 0.0 0.0 0.00 0.05 0.05 97 1009.9
20260903134414 53 203 0.0 0.0 0.00 0.05 0.05 97 1009.9
20260903133912 53 201 0.0 0.0 0.00 0.05 0.05 97 1009.9
20260903133408 53 201 0.0 0.0 0.07 0.05 0.05 97 1009.8
20260903132903 53 200 0.0 0.0 0.07 0.05 0.05 97 1009.7
20260903132359 53 200 0.0 0.0 0.00 0.04 0.04 97 1009.8
20260903131853 53 198 0.0 0.0 0.00 0.04 0.04 96 1009.8
20260903131353 53 206 0.0 0.0 0.05 0.04 0.04 96 1009.7
20260903130852 53 200 0.0 0.0 0.05 0.04 0.04 96 1009.8
20260903130347 53 199 0.0 0.0 0.00 0.03 0.03 95 1009.6
20260903125846 54 199 0.0 0.0 0.00 0.03 0.03 95 1009.7
20260903125341 54 201 0.0 0.0 0.00 0.03 0.03 94 1009.8
20260903124840 54 199 0.0 0.0 0.07 0.03 0.03 93 1009.7
20260903124336 54 211 0.0 0.0 0.07 0.03 0.03 93 1009.8
20260903123834 54 211 0.0 0.0 0.00 0.02 0.02 92 1009.7
20260903123329 54 212 0.0 0.9 0.07 0.02 0.02 91 1009.9
20260903122828 55 210 0.0 0.9 0.07 0.02 0.02 90 1009.5
20260903122322 55 207 0.0 2.6 0.00 0.01 0.01 89 1009.6
20260903121821 55 217 0.0 0.0 0.00 0.01 0.01 88 1009.6
20260903121311 55 224 0.0 0.0 0.00 0.01 0.01 88 1009.2
20260903120807 55 212 0.0 0.0 0.00 0.01 0.01 86 1009.1
20260903120306 55 204 0.0 0.0 0.00 0.01 0.01 85 1009.0
20260903115804 55 198 0.0 0.0 0.00 0.01 0.01 85 1008.8
20260903115300 55 198 0.0 0.9 0.00 0.01 0.01 86 1009.2
20260903114759 55 205 0.0 0.0 0.00 0.01 0.01 86 1009.0
20260903114255 55 193 0.9 0.9 0.00 0.01 0.01 85 1008.9
20260903113750 56 177 0.0 0.0 0.05 0.01 0.01 85 1009.2
20260903113246 56 197 0.0 0.9 0.05 0.01 0.01 84 1009.1
20260903112742 56 185 0.0 0.0 0.00 0.00 0.00 83 1008.9
20260903112238 56 193 0.0 0.9 0.00 0.00 0.00 83 1009.1
20260903111736 56 196 0.0 0.0 0.00 0.00 0.00 82 1009.1
20260903111231 56 198 0.0 0.0 0.00 0.00 0.00 82 1009.2
20260903110727 56 201 0.0 1.7 0.00 0.00 0.00 82 1009.0
20260903110223 55 198 0.0 0.0 0.00 0.00 0.00 82 1009.0
20260903105723 55 198 0.0 0.0 0.00 0.00 0.00 83 1008.9
20260903105218 55 200 0.0 0.0 0.00 0.00 0.00 84 1009.0
20260903104717 55 197 0.0 0.0 0.00 0.00 0.00 83 1009.2
20260903104213 55 198 0.0 0.0 0.00 0.00 0.00 84 1009.1
20260903103708 55 199 0.0 0.9 0.00 0.00 0.00 85 1009.1
20260903103204 55 202 0.0 0.9 0.00 0.00 0.00 86 1008.9
20260903102659 55 203 0.0 0.0 0.00 0.00 0.00 84 1009.0
20260903102154 55 200 0.0 0.0 0.00 0.00 0.00 84 1008.9
20260903101653 55 196 0.0 0.0 0.00 0.00 0.00 85 1009.0
20260903101148 55 205 0.0 0.9 0.00 0.00 0.00 85 1009.0
20260903100643 55 196 0.0 0.0 0.00 0.00 0.00 86 1009.0
20260903100143 55 196 0.0 0.9 0.00 0.00 0.00 86 1009.0
20260903095641 55 194 0.0 0.0 0.00 0.00 0.00 87 1009.1
20260903095140 55 199 0.0 0.0 0.00 0.00 0.00 86 1009.1
20260903094636 55 198 0.0 0.0 0.00 0.00 0.00 86 1009.0
20260903094131 56 202 0.0 0.9 0.00 0.00 0.00 85 1009.0
20260903093626 56 204 0.0 0.0 0.00 0.00 0.00 83 1009.0
20260903093121 56 201 0.0 0.0 0.00 0.00 0.00 83 1008.9
20260903092621 56 201 0.0 0.0 0.00 0.00 0.00 84 1009.1
20260903092116 56 196 0.0 0.0 0.00 0.00 0.00 83 1008.8
20260903091614 55 199 0.0 0.0 0.00 0.00 0.00 84 1008.9
20260903091109 55 197 0.0 0.0 0.00 0.00 0.00 84 1009.0
20260903090605 55 198 0.0 0.0 0.00 0.00 0.00 84 1008.8
20260903090103 55 199 0.0 0.0 0.00 0.00 0.00 84 1008.8
20260903085602 55 200 0.0 0.0 0.00 0.00 0.00 85 1008.9
20260903085058 55 209 0.0 0.0 0.00 0.00 0.00 85 1008.8
20260903084555 55 201 0.0 0.0 0.00 0.00 0.00 85 1008.8
20260903084050 55 204 0.0 0.9 0.00 0.00 0.00 85 1008.6
20260903083546 55 204 0.0 0.0 0.00 0.00 0.00 86 1008.7
20260903083046 55 203 0.0 0.0 0.00 0.00 0.00 86 1008.7
20260903082546 55 201 0.0 0.0 0.00 0.00 0.00 86 1008.6
20260903082042 55 206 0.0 0.9 0.00 0.00 0.00 86 1008.5
20260903081537 55 205 0.9 0.9 0.00 0.00 0.00 87 1008.9
20260903081033 55 208 0.0 0.9 0.00 0.00 0.00 87 1008.8
20260903080529 54 187 0.0 0.9 0.00 0.00 0.00 89 1008.9
20260903080026 55 199 0.0 0.0 0.00 0.00 0.00 89 1008.7
20260903075520 55 200 0.0 0.9 0.00 0.00 0.00 88 1008.8
20260903075015 55 201 0.0 0.9 0.00 0.00 0.00 88 1008.9
20260903074514 55 200 0.0 0.9 0.00 0.00 0.00 88 1008.7
20260903074009 55 206 0.0 0.0 0.00 0.00 0.00 88 1008.7
20260903073505 55 201 0.0 0.9 0.00 0.00 0.00 88 1008.6
20260903073001 55 205 0.0 0.0 0.00 0.00 0.00 89 1008.8
20260903072456 55 202 0.0 0.0 0.00 0.00 0.00 89 1008.7
20260903071953 55 203 0.0 0.0 0.00 0.00 0.00 89 1008.6
20260903071448 55 198 0.0 0.0 0.00 0.00 0.00 90 1008.7
20260903070943 55 136 0.0 0.9 0.00 0.00 0.00 90 1008.7
20260903070438 55 201 0.0 0.0 0.00 0.00 0.00 89 1008.8
20260903065933 55 200 0.0 0.0 0.00 0.25 0.25 89 1008.6
20260903065433 55 204 0.0 1.7 0.00 0.25 0.25 88 1008.6
20260903064932 55 203 0.0 0.0 0.00 0.25 0.25 88 1008.7
20260903064427 55 203 0.9 1.7 0.00 0.25 0.25 88 1008.8
20260903063923 55 202 0.0 0.0 0.00 0.25 0.25 89 1008.8
20260903063418 55 206 0.0 0.9 0.00 0.25 0.25 89 1008.6
20260903062913 55 200 0.0 0.0 0.00 0.25 0.25 90 1008.6
20260903062408 55 206 0.0 0.0 0.00 0.25 0.25 90 1008.5
20260903061904 55 205 0.0 0.0 0.00 0.25 0.25 91 1008.4
20260903061403 55 205 0.0 0.0 0.00 0.25 0.25 91 1008.4
20260903060859 55 203 0.0 0.9 0.00 0.25 0.25 91 1008.4
20260903060359 55 205 0.0 1.7 0.00 0.25 0.25 91 1008.5
20260903055856 55 205 0.0 0.0 0.00 0.25 0.25 92 1008.5
20260903055354 55 200 0.0 0.0 0.00 0.25 0.25 93 1008.7
20260903054849 55 206 0.0 0.0 0.00 0.25 0.25 94 1008.5
20260903054344 55 206 0.0 0.9 0.00 0.25 0.25 94 1008.9
20260903053841 55 204 0.0 0.9 0.00 0.25 0.25 95 1008.6
20260903053335 55 204 0.0 0.0 0.00 0.25 0.25 96 1008.7
20260903052831 55 203 0.0 0.0 0.00 0.25 0.25 96 1008.6
20260903052327 55 204 0.0 0.0 0.00 0.25 0.25 96 1008.7
20260903051823 55 202 0.0 0.0 0.00 0.25 0.25 97 1008.7
20260903051317 55 202 0.0 0.0 0.00 0.25 0.25 97 1008.6
20260903050813 55 202 0.0 0.0 0.00 0.25 0.25 97 1008.5
20260903050312 55 203 0.0 0.0 0.00 0.25 0.25 97 1008.6
20260903045807 55 206 0.0 0.9 0.00 0.25 0.25 97 1008.6
20260903045306 55 201 0.0 0.9 0.00 0.25 0.25 98 1008.5
20260903044759 55 203 0.0 0.0 0.00 0.25 0.25 98 1008.7
20260903044254 55 202 0.0 0.0 0.00 0.25 0.25 98 1008.6
20260903043751 55 201 0.0 0.0 0.00 0.25 0.25 98 1008.7
20260903043250 55 202 0.0 0.0 0.00 0.25 0.25 98 1008.4
20260903042749 55 205 0.0 0.9 0.00 0.25 0.25 97 1008.5
20260903042245 55 205 0.0 1.7 0.00 0.25 0.25 97 1008.6
20260903041741 55 203 0.0 0.0 0.00 0.25 0.25 98 1008.3
20260903041237 56 206 0.0 0.0 0.00 0.25 0.25 98 1008.3
20260903040737 56 154 0.0 0.0 0.00 0.25 0.25 98 1008.5
20260903040231 56 190 0.0 0.9 0.00 0.25 0.25 98 1008.4
20260903035727 56 197 0.0 0.0 0.00 0.25 0.25 98 1008.4
20260903035223 56 204 0.0 0.9 0.00 0.25 0.25 98 1008.2
20260903034723 56 59 0.0 0.9 0.00 0.25 0.25 98 1008.1
20260903034218 56 205 0.0 0.9 0.00 0.25 0.25 98 1008.1
20260903033713 56 204 0.0 0.9 0.00 0.25 0.25 98 1008.1
20260903033208 57 207 0.0 0.9 0.00 0.25 0.25 98 1007.7
20260903032703 57 202 0.0 0.0 0.00 0.25 0.25 98 1007.9
20260903032158 57 202 0.0 0.9 0.00 0.25 0.25 98 1007.7
20260903031654 57 202 0.0 0.9 0.00 0.25 0.25 98 1007.8
20260903031148 57 201 0.0 0.9 0.00 0.25 0.25 98 1007.6
20260903030644 57 204 0.0 0.9 0.00 0.25 0.25 97 1007.4
20260903030139 57 84 0.0 0.0 0.00 0.25 0.25 97 1007.4
20260903025634 56 206 0.0 0.0 0.00 0.25 0.25 96 1007.6
20260903025130 56 201 0.0 0.0 0.00 0.25 0.25 96 1007.5
20260903024625 57 201 0.0 0.0 0.00 0.25 0.25 95 1007.4
20260903024119 57 208 0.0 0.0 0.00 0.25 0.25 94 1007.2
20260903023614 57 206 0.0 0.0 0.00 0.25 0.25 93 1007.3
20260903023114 58 203 0.0 0.9 0.00 0.25 0.25 92 1007.1
20260903022609 58 210 0.0 0.9 0.00 0.25 0.25 91 1007.3
20260903022108 58 213 0.9 1.7 0.00 0.25 0.25 91 1007.0
20260903021602 59 202 0.0 1.7 0.00 0.25 0.25 92 1007.0
20260903021057 59 227 2.6 2.6 0.00 0.25 0.25 92 1007.0
20260903020552 58 214 0.0 2.6 0.00 0.25 0.25 93 1007.2
20260903020047 59 204 0.0 0.9 0.00 0.25 0.25 94 1006.9
20260903015543 58 205 0.0 1.7 0.00 0.25 0.25 93 1007.0
20260903015038 59 208 0.0 1.7 0.00 0.25 0.25 92 1007.1
20260903014537 59 210 0.0 1.7 0.00 0.25 0.25 91 1006.8
20260903014032 59 216 0.0 2.6 0.00 0.25 0.25 92 1006.6
20260903013531 59 232 2.6 5.2 0.00 0.25 0.25 94 1006.8
20260903013026 59 199 1.7 5.2 0.00 0.25 0.25 97 1006.7
20260903012525 58 206 1.7 2.6 0.00 0.25 0.25 97 1006.7
20260903012024 58 205 0.0 2.6 0.00 0.25 0.25 98 1006.4
20260903011519 58 208 0.9 2.6 0.00 0.25 0.25 98 1006.3
20260903011014 58 202 0.9 1.7 0.00 0.25 0.25 98 1006.2
20260903010509 59 270 1.7 4.3 0.00 0.25 0.25 98 1006.1
20260903010008 59 213 0.0 1.7 0.00 0.25 0.25 99 1006.2
20260903005503 59 208 1.7 4.3 0.07 0.25 0.25 99 1006.2
20260903004958 59 248 0.0 4.3 0.07 0.25 0.25 99 1005.9
20260903004453 59 217 1.7 2.6 0.05 0.24 0.24 99 1006.0
20260903003949 59 209 0.0 0.9 0.12 0.24 0.24 99 1005.7
20260903003448 59 209 0.9 1.7 0.07 0.23 0.23 99 1006.1
20260903002943 59 225 2.6 7.0 0.00 0.22 0.22 99 1006.0
20260903002438 59 209 0.0 0.0 0.00 0.22 0.22 99 1005.7
20260903001938 59 215 0.0 0.0 0.00 0.22 0.22 99 1005.4
20260903001438 60 215 0.0 0.0 0.00 0.22 0.22 99 1005.5
20260903000932 60 212 0.0 0.0 0.00 0.22 0.22 99 1005.6
20260903000428 60 212 0.0 0.0 0.00 0.22 0.22 99 1005.2
20260902235925 60 208 0.0 0.0 0.00 0.22 0.22 99 1005.5
20260902235420 60 211 0.0 0.0 0.00 0.22 0.22 99 1005.5
20260902234915 60 211 0.0 0.0 0.00 0.22 0.22 99 1005.3
20260902234410 59 211 0.0 0.0 0.00 0.22 0.22 99 1005.5
20260902233909 59 216 0.0 0.0 0.00 0.22 0.22 98 1005.4
20260902233403 59 200 0.0 0.9 0.00 0.22 0.22 98 1005.5
20260902232901 59 197 0.0 0.0 0.00 0.22 0.22 98 1005.6
20260902232356 59 203 0.0 0.0 0.05 0.22 0.22 98 1005.7